Year,Month,Day,Hour,Minute,Value (Times are PST for insolation in W/m^2)
2012,09,30,00,00,0.00
2012,09,30,00,01,0.00
2012,09,30,00,02,0.00
2012,09,30,00,03,0.00
2012,09,30,00,04,0.00
2012,09,30,00,05,0.00
2012,09,30,00,06,0.00
2012,09,30,00,07,0.00
2012,09,30,00,08,0.00
2012,09,30,00,09,0.00
2012,09,30,00,10,0.00
2012,09,30,00,11,0.00
2012,09,30,00,12,0.00
2012,09,30,00,13,0.00
2012,09,30,00,14,0.00
2012,09,30,00,15,0.00
2012,09,30,00,16,0.00
2012,09,30,00,17,0.00
2012,09,30,00,18,0.00
2012,09,30,00,19,0.00
2012,09,30,00,20,0.00
2012,09,30,00,21,0.00
2012,09,30,00,22,0.00
2012,09,30,00,23,0.00
2012,09,30,00,24,0.00
2012,09,30,00,25,0.00
2012,09,30,00,26,0.00
2012,09,30,00,27,0.00
2012,09,30,00,28,0.00
2012,09,30,00,29,0.00
2012,09,30,00,30,0.00
2012,09,30,00,31,0.00
2012,09,30,00,32,0.00
2012,09,30,00,33,0.00
2012,09,30,00,34,0.00
2012,09,30,00,35,0.00
2012,09,30,00,36,0.00
2012,09,30,00,37,0.00
2012,09,30,00,38,0.00
2012,09,30,00,39,0.00
2012,09,30,00,40,0.00
2012,09,30,00,41,0.00
2012,09,30,00,42,0.00
2012,09,30,00,43,0.00
2012,09,30,00,44,0.00
2012,09,30,00,45,0.00
2012,09,30,00,46,0.00
2012,09,30,00,47,0.00
2012,09,30,00,48,0.00
2012,09,30,00,49,0.00
2012,09,30,00,50,0.00
2012,09,30,00,51,0.00
2012,09,30,00,52,0.00
2012,09,30,00,53,0.00
2012,09,30,00,54,0.00
2012,09,30,00,55,0.00
2012,09,30,00,56,0.00
2012,09,30,00,57,0.00
2012,09,30,00,58,0.00
2012,09,30,00,59,0.00
2012,09,30,01,00,0.00
2012,09,30,01,01,0.00
2012,09,30,01,02,0.00
2012,09,30,01,03,0.00
2012,09,30,01,04,0.00
2012,09,30,01,05,0.00
2012,09,30,01,06,0.00
2012,09,30,01,07,0.00
2012,09,30,01,08,0.00
2012,09,30,01,09,0.00
2012,09,30,01,10,0.00
2012,09,30,01,11,0.00
2012,09,30,01,12,0.00
2012,09,30,01,13,0.00
2012,09,30,01,14,0.00
2012,09,30,01,15,0.00
2012,09,30,01,16,0.00
2012,09,30,01,17,0.00
2012,09,30,01,18,0.00
2012,09,30,01,19,0.00
2012,09,30,01,20,0.00
2012,09,30,01,21,0.00
2012,09,30,01,22,0.00
2012,09,30,01,23,0.00
2012,09,30,01,24,0.00
2012,09,30,01,25,0.00
2012,09,30,01,26,0.00
2012,09,30,01,27,0.00
2012,09,30,01,28,0.00
2012,09,30,01,29,0.00
2012,09,30,01,30,0.00
2012,09,30,01,31,0.00
2012,09,30,01,32,0.00
2012,09,30,01,33,0.00
2012,09,30,01,34,0.00
2012,09,30,01,35,0.00
2012,09,30,01,36,0.00
2012,09,30,01,37,0.00
2012,09,30,01,38,0.00
2012,09,30,01,39,0.00
2012,09,30,01,40,0.00
2012,09,30,01,41,0.00
2012,09,30,01,42,0.00
2012,09,30,01,43,0.00
2012,09,30,01,44,0.00
2012,09,30,01,45,0.00
2012,09,30,01,46,0.00
2012,09,30,01,47,0.00
2012,09,30,01,48,0.00
2012,09,30,01,49,0.00
2012,09,30,01,50,0.00
2012,09,30,01,51,0.00
2012,09,30,01,52,0.00
2012,09,30,01,53,0.00
2012,09,30,01,54,0.00
2012,09,30,01,55,0.00
2012,09,30,01,56,0.00
2012,09,30,01,57,0.00
2012,09,30,01,58,0.00
2012,09,30,01,59,0.00
2012,09,30,02,00,0.00
2012,09,30,02,01,0.00
2012,09,30,02,02,0.00
2012,09,30,02,03,0.00
2012,09,30,02,04,0.00
2012,09,30,02,05,0.00
2012,09,30,02,06,0.00
2012,09,30,02,07,0.00
2012,09,30,02,08,0.00
2012,09,30,02,09,0.00
2012,09,30,02,10,0.00
2012,09,30,02,11,0.00
2012,09,30,02,12,0.00
2012,09,30,02,13,0.00
2012,09,30,02,14,0.00
2012,09,30,02,15,0.00
2012,09,30,02,16,0.00
2012,09,30,02,17,0.00
2012,09,30,02,18,0.00
2012,09,30,02,19,0.00
2012,09,30,02,20,0.00
2012,09,30,02,21,0.00
2012,09,30,02,22,0.00
2012,09,30,02,23,0.00
2012,09,30,02,24,0.00
2012,09,30,02,25,0.00
2012,09,30,02,26,0.00
2012,09,30,02,27,0.00
2012,09,30,02,28,0.00
2012,09,30,02,29,0.00
2012,09,30,02,30,0.00
2012,09,30,02,31,0.00
2012,09,30,02,32,0.00
2012,09,30,02,33,0.00
2012,09,30,02,34,0.00
2012,09,30,02,35,0.00
2012,09,30,02,36,0.00
2012,09,30,02,37,0.00
2012,09,30,02,38,0.00
2012,09,30,02,39,0.00
2012,09,30,02,40,0.00
2012,09,30,02,41,0.00
2012,09,30,02,42,0.00
2012,09,30,02,43,0.00
2012,09,30,02,44,0.00
2012,09,30,02,45,0.00
2012,09,30,02,46,0.00
2012,09,30,02,47,0.00
2012,09,30,02,48,0.00
2012,09,30,02,49,0.00
2012,09,30,02,50,0.00
2012,09,30,02,51,0.00
2012,09,30,02,52,0.00
2012,09,30,02,53,0.00
2012,09,30,02,54,0.00
2012,09,30,02,55,0.00
2012,09,30,02,56,0.00
2012,09,30,02,57,0.00
2012,09,30,02,58,0.00
2012,09,30,02,59,0.00
2012,09,30,03,00,0.00
2012,09,30,03,01,0.00
2012,09,30,03,02,0.00
2012,09,30,03,03,0.00
2012,09,30,03,04,0.00
2012,09,30,03,05,0.00
2012,09,30,03,06,0.00
2012,09,30,03,07,0.00
2012,09,30,03,08,0.00
2012,09,30,03,09,0.00
2012,09,30,03,10,0.00
2012,09,30,03,11,0.00
2012,09,30,03,12,0.00
2012,09,30,03,13,0.00
2012,09,30,03,14,0.00
2012,09,30,03,15,0.00
2012,09,30,03,16,0.00
2012,09,30,03,17,0.00
2012,09,30,03,18,0.00
2012,09,30,03,19,0.00
2012,09,30,03,20,0.00
2012,09,30,03,21,0.00
2012,09,30,03,22,0.00
2012,09,30,03,23,0.00
2012,09,30,03,24,0.00
2012,09,30,03,25,0.00
2012,09,30,03,26,0.00
2012,09,30,03,27,0.00
2012,09,30,03,28,0.00
2012,09,30,03,29,0.00
2012,09,30,03,30,0.00
2012,09,30,03,31,0.00
2012,09,30,03,32,0.00
2012,09,30,03,33,0.00
2012,09,30,03,34,0.00
2012,09,30,03,35,0.00
2012,09,30,03,36,0.00
2012,09,30,03,37,0.00
2012,09,30,03,38,0.00
2012,09,30,03,39,0.00
2012,09,30,03,40,0.00
2012,09,30,03,41,0.00
2012,09,30,03,42,0.00
2012,09,30,03,43,0.00
2012,09,30,03,44,0.00
2012,09,30,03,45,0.00
2012,09,30,03,46,0.00
2012,09,30,03,47,0.00
2012,09,30,03,48,0.00
2012,09,30,03,49,0.00
2012,09,30,03,50,0.00
2012,09,30,03,51,0.00
2012,09,30,03,52,0.00
2012,09,30,03,53,0.00
2012,09,30,03,54,0.00
2012,09,30,03,55,0.00
2012,09,30,03,56,0.00
2012,09,30,03,57,0.00
2012,09,30,03,58,0.00
2012,09,30,03,59,0.00
2012,09,30,04,00,0.00
2012,09,30,04,01,0.00
2012,09,30,04,02,0.00
2012,09,30,04,03,0.00
2012,09,30,04,04,0.00
2012,09,30,04,05,0.00
2012,09,30,04,06,0.00
2012,09,30,04,07,0.00
2012,09,30,04,08,0.00
2012,09,30,04,09,0.00
2012,09,30,04,10,0.00
2012,09,30,04,11,0.00
2012,09,30,04,12,0.00
2012,09,30,04,13,0.00
2012,09,30,04,14,0.00
2012,09,30,04,15,0.00
2012,09,30,04,16,0.00
2012,09,30,04,17,0.00
2012,09,30,04,18,0.00
2012,09,30,04,19,0.00
2012,09,30,04,20,0.00
2012,09,30,04,21,0.00
2012,09,30,04,22,0.00
2012,09,30,04,23,0.00
2012,09,30,04,24,0.00
2012,09,30,04,25,0.00
2012,09,30,04,26,0.00
2012,09,30,04,27,0.00
2012,09,30,04,28,0.00
2012,09,30,04,29,0.00
2012,09,30,04,30,0.00
2012,09,30,04,31,0.00
2012,09,30,04,32,0.00
2012,09,30,04,33,0.00
2012,09,30,04,34,0.00
2012,09,30,04,35,0.00
2012,09,30,04,36,0.00
2012,09,30,04,37,0.00
2012,09,30,04,38,0.00
2012,09,30,04,39,0.00
2012,09,30,04,40,0.00
2012,09,30,04,41,0.00
2012,09,30,04,42,0.00
2012,09,30,04,43,0.00
2012,09,30,04,44,0.00
2012,09,30,04,45,0.00
2012,09,30,04,46,0.00
2012,09,30,04,47,0.00
2012,09,30,04,48,0.00
2012,09,30,04,49,0.00
2012,09,30,04,50,0.00
2012,09,30,04,51,0.00
2012,09,30,04,52,0.00
2012,09,30,04,53,0.00
2012,09,30,04,54,0.00
2012,09,30,04,55,0.00
2012,09,30,04,56,0.00
2012,09,30,04,57,0.00
2012,09,30,04,58,0.00
2012,09,30,04,59,0.00
2012,09,30,05,00,0.00
2012,09,30,05,01,0.00
2012,09,30,05,02,0.00
2012,09,30,05,03,0.00
2012,09,30,05,04,0.00
2012,09,30,05,05,0.00
2012,09,30,05,06,0.00
2012,09,30,05,07,0.00
2012,09,30,05,08,0.00
2012,09,30,05,09,0.00
2012,09,30,05,10,0.00
2012,09,30,05,11,0.00
2012,09,30,05,12,0.00
2012,09,30,05,13,0.00
2012,09,30,05,14,0.00
2012,09,30,05,15,0.00
2012,09,30,05,16,0.00
2012,09,30,05,17,0.00
2012,09,30,05,18,0.00
2012,09,30,05,19,0.00
2012,09,30,05,20,0.00
2012,09,30,05,21,0.00
2012,09,30,05,22,0.00
2012,09,30,05,23,0.00
2012,09,30,05,24,0.00
2012,09,30,05,25,0.00
2012,09,30,05,26,0.00
2012,09,30,05,27,0.00
2012,09,30,05,28,0.00
2012,09,30,05,29,0.00
2012,09,30,05,30,0.00
2012,09,30,05,31,0.00
2012,09,30,05,32,0.00
2012,09,30,05,33,0.00
2012,09,30,05,34,0.00
2012,09,30,05,35,0.00
2012,09,30,05,36,0.00
2012,09,30,05,37,0.00
2012,09,30,05,38,0.00
2012,09,30,05,39,0.00
2012,09,30,05,40,0.00
2012,09,30,05,41,0.00
2012,09,30,05,42,0.00
2012,09,30,05,43,0.00
2012,09,30,05,44,0.00
2012,09,30,05,45,0.00
2012,09,30,05,46,0.00
2012,09,30,05,47,0.00
2012,09,30,05,48,0.00
2012,09,30,05,49,0.00
2012,09,30,05,50,0.00
2012,09,30,05,51,0.00
2012,09,30,05,52,0.00
2012,09,30,05,53,0.00
2012,09,30,05,54,0.00
2012,09,30,05,55,0.00
2012,09,30,05,56,0.00
2012,09,30,05,57,0.00
2012,09,30,05,58,0.00
2012,09,30,05,59,0.00
2012,09,30,06,00,0.00
2012,09,30,06,01,0.00
2012,09,30,06,02,0.00
2012,09,30,06,03,0.00
2012,09,30,06,04,0.00
2012,09,30,06,05,0.00
2012,09,30,06,06,0.00
2012,09,30,06,07,0.00
2012,09,30,06,08,0.00
2012,09,30,06,09,0.00
2012,09,30,06,10,0.00
2012,09,30,06,11,0.00
2012,09,30,06,12,0.00
2012,09,30,06,13,0.00
2012,09,30,06,14,0.00
2012,09,30,06,15,0.00
2012,09,30,06,16,0.00
2012,09,30,06,17,0.00
2012,09,30,06,18,0.00
2012,09,30,06,19,0.00
2012,09,30,06,20,0.00
2012,09,30,06,21,0.00
2012,09,30,06,22,0.00
2012,09,30,06,23,0.00
2012,09,30,06,24,0.00
2012,09,30,06,25,0.00
2012,09,30,06,26,0.00
2012,09,30,06,27,0.00
2012,09,30,06,28,0.00
2012,09,30,06,29,0.00
2012,09,30,06,30,0.00
2012,09,30,06,31,0.00
2012,09,30,06,32,0.00
2012,09,30,06,33,0.00
2012,09,30,06,34,0.00
2012,09,30,06,35,0.00
2012,09,30,06,36,0.00
2012,09,30,06,37,0.00
2012,09,30,06,38,0.00
2012,09,30,06,39,0.00
2012,09,30,06,40,0.00
2012,09,30,06,41,0.00
2012,09,30,06,42,0.00
2012,09,30,06,43,0.00
2012,09,30,06,44,0.00
2012,09,30,06,45,0.00
2012,09,30,06,46,0.00
2012,09,30,06,47,0.00
2012,09,30,06,48,0.00
2012,09,30,06,49,0.00
2012,09,30,06,50,0.00
2012,09,30,06,51,0.00
2012,09,30,06,52,0.00
2012,09,30,06,53,0.00
2012,09,30,06,54,0.00
2012,09,30,06,55,0.00
2012,09,30,06,56,0.00
2012,09,30,06,57,0.00
2012,09,30,06,58,0.00
2012,09,30,06,59,0.00
2012,09,30,07,00,0.00
2012,09,30,07,01,0.00
2012,09,30,07,02,0.00
2012,09,30,07,03,0.00
2012,09,30,07,04,0.00
2012,09,30,07,05,0.00
2012,09,30,07,06,0.00
2012,09,30,07,07,0.00
2012,09,30,07,08,0.00
2012,09,30,07,09,0.00
2012,09,30,07,10,0.00
2012,09,30,07,11,0.00
2012,09,30,07,12,0.00
2012,09,30,07,13,0.00
2012,09,30,07,14,0.00
2012,09,30,07,15,4.50
2012,09,30,07,16,5.00
2012,09,30,07,17,5.70
2012,09,30,07,18,7.00
2012,09,30,07,19,7.00
2012,09,30,07,20,8.50
2012,09,30,07,21,9.20
2012,09,30,07,22,11.20
2012,09,30,07,23,12.00
2012,09,30,07,24,12.00
2012,09,30,07,25,13.30
2012,09,30,07,26,14.00
2012,09,30,07,27,15.90
2012,09,30,07,28,16.40
2012,09,30,07,29,18.40
2012,09,30,07,30,20.10
2012,09,30,07,31,23.70
2012,09,30,07,32,29.00
2012,09,30,07,33,32.00
2012,09,30,07,34,33.00
2012,09,30,07,35,32.60
2012,09,30,07,36,32.00
2012,09,30,07,37,30.60
2012,09,30,07,38,30.00
2012,09,30,07,39,30.30
2012,09,30,07,40,32.00
2012,09,30,07,41,31.10
2012,09,30,07,42,31.70
2012,09,30,07,43,37.20
2012,09,30,07,44,39.00
2012,09,30,07,45,43.70
2012,09,30,07,46,41.10
2012,09,30,07,47,39.00
2012,09,30,07,48,43.10
2012,09,30,07,49,51.20
2012,09,30,07,50,53.20
2012,09,30,07,51,56.00
2012,09,30,07,52,56.60
2012,09,30,07,53,57.10
2012,09,30,07,54,58.40
2012,09,30,07,55,63.80
2012,09,30,07,56,68.60
2012,09,30,07,57,73.00
2012,09,30,07,58,79.10
2012,09,30,07,59,83.50
2012,09,30,08,00,85.30
2012,09,30,08,01,87.50
2012,09,30,08,02,85.50
2012,09,30,08,03,75.80
2012,09,30,08,04,93.50
2012,09,30,08,05,100.00
2012,09,30,08,06,101.30
2012,09,30,08,07,104.20
2012,09,30,08,08,105.20
2012,09,30,08,09,108.50
2012,09,30,08,10,109.40
2012,09,30,08,11,114.60
2012,09,30,08,12,119.20
2012,09,30,08,13,124.20
2012,09,30,08,14,127.70
2012,09,30,08,15,132.50
2012,09,30,08,16,132.40
2012,09,30,08,17,132.60
2012,09,30,08,18,136.30
2012,09,30,08,19,137.00
2012,09,30,08,20,146.70
2012,09,30,08,21,153.80
2012,09,30,08,22,156.80
2012,09,30,08,23,160.20
2012,09,30,08,24,162.70
2012,09,30,08,25,164.60
2012,09,30,08,26,165.60
2012,09,30,08,27,169.00
2012,09,30,08,28,171.10
2012,09,30,08,29,175.10
2012,09,30,08,30,177.50
2012,09,30,08,31,178.90
2012,09,30,08,32,178.50
2012,09,30,08,33,181.00
2012,09,30,08,34,182.90
2012,09,30,08,35,186.80
2012,09,30,08,36,189.50
2012,09,30,08,37,189.90
2012,09,30,08,38,188.00
2012,09,30,08,39,189.30
2012,09,30,08,40,192.40
2012,09,30,08,41,194.20
2012,09,30,08,42,198.00
2012,09,30,08,43,198.70
2012,09,30,08,44,193.00
2012,09,30,08,45,195.10
2012,09,30,08,46,200.50
2012,09,30,08,47,204.60
2012,09,30,08,48,200.40
2012,09,30,08,49,204.20
2012,09,30,08,50,210.10
2012,09,30,08,51,214.00
2012,09,30,08,52,215.10
2012,09,30,08,53,216.00
2012,09,30,08,54,217.60
2012,09,30,08,55,220.00
2012,09,30,08,56,222.20
2012,09,30,08,57,225.00
2012,09,30,08,58,221.50
2012,09,30,08,59,220.10
2012,09,30,09,00,221.00
2012,09,30,09,01,229.30
2012,09,30,09,02,231.20
2012,09,30,09,03,229.40
2012,09,30,09,04,233.30
2012,09,30,09,05,236.00
2012,09,30,09,06,238.50
2012,09,30,09,07,244.10
2012,09,30,09,08,245.40
2012,09,30,09,09,244.00
2012,09,30,09,10,244.00
2012,09,30,09,11,247.00
2012,09,30,09,12,253.20
2012,09,30,09,13,267.00
2012,09,30,09,14,267.00
2012,09,30,09,15,267.80
2012,09,30,09,16,270.90
2012,09,30,09,17,272.00
2012,09,30,09,18,277.50
2012,09,30,09,19,281.00
2012,09,30,09,20,282.40
2012,09,30,09,21,282.30
2012,09,30,09,22,282.90
2012,09,30,09,23,286.60
2012,09,30,09,24,291.40
2012,09,30,09,25,290.80
2012,09,30,09,26,295.00
2012,09,30,09,27,297.00
2012,09,30,09,28,297.00
2012,09,30,09,29,300.20
2012,09,30,09,30,301.50
2012,09,30,09,31,306.00
2012,09,30,09,32,306.70
2012,09,30,09,33,308.00
2012,09,30,09,34,311.20
2012,09,30,09,35,314.60
2012,09,30,09,36,316.10
2012,09,30,09,37,318.50
2012,09,30,09,38,320.80
2012,09,30,09,39,323.60
2012,09,30,09,40,325.00
2012,09,30,09,41,328.40
2012,09,30,09,42,330.10
2012,09,30,09,43,332.60
2012,09,30,09,44,334.80
2012,09,30,09,45,337.10
2012,09,30,09,46,338.00
2012,09,30,09,47,338.90
2012,09,30,09,48,339.90
2012,09,30,09,49,345.30
2012,09,30,09,50,346.90
2012,09,30,09,51,350.30
2012,09,30,09,52,352.70
2012,09,30,09,53,354.90
2012,09,30,09,54,359.20
2012,09,30,09,55,360.00
2012,09,30,09,56,361.80
2012,09,30,09,57,365.20
2012,09,30,09,58,366.80
2012,09,30,09,59,369.00
2012,09,30,10,00,373.20
2012,09,30,10,01,374.70
2012,09,30,10,02,377.00
2012,09,30,10,03,380.00
2012,09,30,10,04,382.60
2012,09,30,10,05,385.00
2012,09,30,10,06,388.60
2012,09,30,10,07,392.70
2012,09,30,10,08,395.00
2012,09,30,10,09,397.90
2012,09,30,10,10,399.00
2012,09,30,10,11,402.80
2012,09,30,10,12,403.60
2012,09,30,10,13,406.70
2012,09,30,10,14,409.50
2012,09,30,10,15,412.30
2012,09,30,10,16,414.60
2012,09,30,10,17,417.50
2012,09,30,10,18,420.00
2012,09,30,10,19,421.60
2012,09,30,10,20,424.00
2012,09,30,10,21,426.10
2012,09,30,10,22,427.00
2012,09,30,10,23,429.20
2012,09,30,10,24,431.30
2012,09,30,10,25,432.80
2012,09,30,10,26,435.10
2012,09,30,10,27,437.40
2012,09,30,10,28,438.00
2012,09,30,10,29,441.00
2012,09,30,10,30,442.50
2012,09,30,10,31,444.80
2012,09,30,10,32,444.70
2012,09,30,10,33,447.40
2012,09,30,10,34,453.50
2012,09,30,10,35,455.00
2012,09,30,10,36,455.60
2012,09,30,10,37,457.90
2012,09,30,10,38,459.00
2012,09,30,10,39,461.10
2012,09,30,10,40,465.50
2012,09,30,10,41,464.30
2012,09,30,10,42,466.90
2012,09,30,10,43,469.00
2012,09,30,10,44,469.00
2012,09,30,10,45,472.00
2012,09,30,10,46,474.90
2012,09,30,10,47,476.40
2012,09,30,10,48,478.00
2012,09,30,10,49,479.00
2012,09,30,10,50,481.90
2012,09,30,10,51,483.00
2012,09,30,10,52,486.80
2012,09,30,10,53,487.70
2012,09,30,10,54,490.00
2012,09,30,10,55,491.00
2012,09,30,10,56,493.30
2012,09,30,10,57,494.00
2012,09,30,10,58,496.90
2012,09,30,10,59,497.50
2012,09,30,11,00,499.70
2012,09,30,11,01,502.10
2012,09,30,11,02,503.00
2012,09,30,11,03,505.40
2012,09,30,11,04,508.20
2012,09,30,11,05,510.50
2012,09,30,11,06,512.40
2012,09,30,11,07,514.20
2012,09,30,11,08,515.00
2012,09,30,11,09,516.70
2012,09,30,11,10,519.20
2012,09,30,11,11,520.00
2012,09,30,11,12,520.80
2012,09,30,11,13,523.20
2012,09,30,11,14,525.50
2012,09,30,11,15,526.00
2012,09,30,11,16,527.30
2012,09,30,11,17,529.60
2012,09,30,11,18,531.90
2012,09,30,11,19,533.60
2012,09,30,11,20,535.50
2012,09,30,11,21,534.20
2012,09,30,11,22,538.00
2012,09,30,11,23,539.00
2012,09,30,11,24,541.00
2012,09,30,11,25,542.30
2012,09,30,11,26,544.50
2012,09,30,11,27,545.00
2012,09,30,11,28,545.40
2012,09,30,11,29,547.30
2012,09,30,11,30,548.00
2012,09,30,11,31,548.00
2012,09,30,11,32,548.00
2012,09,30,11,33,551.60
2012,09,30,11,34,552.80
2012,09,30,11,35,555.00
2012,09,30,11,36,556.00
2012,09,30,11,37,558.30
2012,09,30,11,38,559.00
2012,09,30,11,39,559.20
2012,09,30,11,40,561.00
2012,09,30,11,41,560.20
2012,09,30,11,42,561.10
2012,09,30,11,43,566.20
2012,09,30,11,44,568.00
2012,09,30,11,45,568.00
2012,09,30,11,46,568.50
2012,09,30,11,47,570.40
2012,09,30,11,48,571.00
2012,09,30,11,49,571.00
2012,09,30,11,50,572.80
2012,09,30,11,51,575.00
2012,09,30,11,52,575.00
2012,09,30,11,53,575.80
2012,09,30,11,54,577.00
2012,09,30,11,55,577.70
2012,09,30,11,56,578.00
2012,09,30,11,57,580.00
2012,09,30,11,58,580.00
2012,09,30,11,59,580.00
2012,09,30,12,00,581.20
2012,09,30,12,01,583.50
2012,09,30,12,02,584.00
2012,09,30,12,03,584.80
2012,09,30,12,04,585.00
2012,09,30,12,05,587.00
2012,09,30,12,06,587.00
2012,09,30,12,07,590.20
2012,09,30,12,08,591.00
2012,09,30,12,09,591.00
2012,09,30,12,10,591.30
2012,09,30,12,11,592.00
2012,09,30,12,12,591.30
2012,09,30,12,13,593.40
2012,09,30,12,14,594.00
2012,09,30,12,15,594.00
2012,09,30,12,16,594.70
2012,09,30,12,17,596.00
2012,09,30,12,18,597.30
2012,09,30,12,19,598.00
2012,09,30,12,20,600.70
2012,09,30,12,21,599.50
2012,09,30,12,22,601.00
2012,09,30,12,23,601.00
2012,09,30,12,24,601.00
2012,09,30,12,25,601.00
2012,09,30,12,26,602.90
2012,09,30,12,27,603.00
2012,09,30,12,28,603.80
2012,09,30,12,29,605.00
2012,09,30,12,30,605.00
2012,09,30,12,31,603.30
2012,09,30,12,32,605.30
2012,09,30,12,33,607.40
2012,09,30,12,34,606.00
2012,09,30,12,35,608.30
2012,09,30,12,36,610.00
2012,09,30,12,37,610.00
2012,09,30,12,38,612.00
2012,09,30,12,39,611.40
2012,09,30,12,40,610.90
2012,09,30,12,41,612.00
2012,09,30,12,42,612.00
2012,09,30,12,43,612.80
2012,09,30,12,44,612.20
2012,09,30,12,45,613.00
2012,09,30,12,46,613.00
2012,09,30,12,47,613.00
2012,09,30,12,48,614.50
2012,09,30,12,49,615.00
2012,09,30,12,50,615.40
2012,09,30,12,51,617.00
2012,09,30,12,52,617.00
2012,09,30,12,53,617.00
2012,09,30,12,54,617.00
2012,09,30,12,55,618.70
2012,09,30,12,56,617.50
2012,09,30,12,57,619.00
2012,09,30,12,58,619.00
2012,09,30,12,59,619.00
2012,09,30,13,00,617.40
2012,09,30,13,01,618.70
2012,09,30,13,02,617.50
2012,09,30,13,03,619.80
2012,09,30,13,04,619.90
2012,09,30,13,05,620.30
2012,09,30,13,06,621.00
2012,09,30,13,07,621.00
2012,09,30,13,08,621.20
2012,09,30,13,09,622.00
2012,09,30,13,10,621.50
2012,09,30,13,11,621.00
2012,09,30,13,12,621.00
2012,09,30,13,13,621.50
2012,09,30,13,14,623.40
2012,09,30,13,15,622.00
2012,09,30,13,16,622.00
2012,09,30,13,17,622.00
2012,09,30,13,18,622.00
2012,09,30,13,19,622.00
2012,09,30,13,20,622.00
2012,09,30,13,21,620.70
2012,09,30,13,22,608.20
2012,09,30,13,23,602.50
2012,09,30,13,24,605.70
2012,09,30,13,25,606.00
2012,09,30,13,26,603.50
2012,09,30,13,27,605.50
2012,09,30,13,28,612.60
2012,09,30,13,29,612.20
2012,09,30,13,30,612.30
2012,09,30,13,31,617.40
2012,09,30,13,32,617.60
2012,09,30,13,33,615.90
2012,09,30,13,34,618.30
2012,09,30,13,35,617.40
2012,09,30,13,36,617.00
2012,09,30,13,37,617.80
2012,09,30,13,38,619.60
2012,09,30,13,39,615.00
2012,09,30,13,40,606.20
2012,09,30,13,41,593.40
2012,09,30,13,42,591.00
2012,09,30,13,43,597.50
2012,09,30,13,44,615.40
2012,09,30,13,45,612.50
2012,09,30,13,46,615.50
2012,09,30,13,47,615.30
2012,09,30,13,48,616.70
2012,09,30,13,49,615.00
2012,09,30,13,50,613.00
2012,09,30,13,51,589.70
2012,09,30,13,52,589.70
2012,09,30,13,53,600.20
2012,09,30,13,54,607.70
2012,09,30,13,55,604.50
2012,09,30,13,56,601.00
2012,09,30,13,57,602.20
2012,09,30,13,58,593.20
2012,09,30,13,59,590.80
2012,09,30,14,00,591.00
2012,09,30,14,01,593.20
2012,09,30,14,02,596.20
2012,09,30,14,03,589.90
2012,09,30,14,04,590.50
2012,09,30,14,05,590.80
2012,09,30,14,06,582.80
2012,09,30,14,07,571.80
2012,09,30,14,08,568.70
2012,09,30,14,09,561.00
2012,09,30,14,10,534.20
2012,09,30,14,11,534.80
2012,09,30,14,12,566.60
2012,09,30,14,13,575.70
2012,09,30,14,14,560.50
2012,09,30,14,15,547.40
2012,09,30,14,16,575.50
2012,09,30,14,17,578.30
2012,09,30,14,18,578.00
2012,09,30,14,19,578.00
2012,09,30,14,20,570.50
2012,09,30,14,21,569.80
2012,09,30,14,22,567.40
2012,09,30,14,23,577.10
2012,09,30,14,24,574.60
2012,09,30,14,25,573.00
2012,09,30,14,26,577.70
2012,09,30,14,27,582.00
2012,09,30,14,28,578.60
2012,09,30,14,29,578.00
2012,09,30,14,30,577.10
2012,09,30,14,31,574.20
2012,09,30,14,32,573.00
2012,09,30,14,33,573.00
2012,09,30,14,34,570.50
2012,09,30,14,35,540.90
2012,09,30,14,36,565.90
2012,09,30,14,37,556.40
2012,09,30,14,38,550.00
2012,09,30,14,39,552.80
2012,09,30,14,40,554.00
2012,09,30,14,41,536.80
2012,09,30,14,42,510.90
2012,09,30,14,43,501.50
2012,09,30,14,44,513.00
2012,09,30,14,45,521.10
2012,09,30,14,46,525.80
2012,09,30,14,47,528.20
2012,09,30,14,48,530.30
2012,09,30,14,49,529.00
2012,09,30,14,50,530.80
2012,09,30,14,51,535.80
2012,09,30,14,52,515.70
2012,09,30,14,53,531.00
2012,09,30,14,54,515.00
2012,09,30,14,55,527.50
2012,09,30,14,56,544.50
2012,09,30,14,57,545.40
2012,09,30,14,58,541.20
2012,09,30,14,59,540.80
2012,09,30,15,00,539.30
2012,09,30,15,01,536.90
2012,09,30,15,02,536.00
2012,09,30,15,03,536.00
2012,09,30,15,04,541.30
2012,09,30,15,05,524.40
2012,09,30,15,06,493.00
2012,09,30,15,07,511.50
2012,09,30,15,08,509.00
2012,09,30,15,09,522.00
2012,09,30,15,10,531.50
2012,09,30,15,11,539.00
2012,09,30,15,12,538.80
2012,09,30,15,13,543.00
2012,09,30,15,14,543.00
2012,09,30,15,15,544.70
2012,09,30,15,16,545.30
2012,09,30,15,17,547.90
2012,09,30,15,18,554.00
2012,09,30,15,19,565.40
2012,09,30,15,20,570.00
2012,09,30,15,21,570.00
2012,09,30,15,22,570.00
2012,09,30,15,23,570.00
2012,09,30,15,24,570.00
2012,09,30,15,25,570.00
2012,09,30,15,26,570.00
2012,09,30,15,27,305.50
2012,09,30,15,28,364.00
2012,09,30,15,29,418.20
2012,09,30,15,30,509.50
2012,09,30,15,31,496.00
2012,09,30,15,32,492.50
2012,09,30,15,33,490.10
2012,09,30,15,34,486.60
2012,09,30,15,35,484.30
2012,09,30,15,36,483.00
2012,09,30,15,37,481.10
2012,09,30,15,38,478.50
2012,09,30,15,39,477.90
2012,09,30,15,40,476.00
2012,09,30,15,41,476.00
2012,09,30,15,42,476.00
2012,09,30,15,43,479.90
2012,09,30,15,44,477.30
2012,09,30,15,45,475.40
2012,09,30,15,46,478.00
2012,09,30,15,47,471.70
2012,09,30,15,48,469.50
2012,09,30,15,49,482.90
2012,09,30,15,50,494.60
2012,09,30,15,51,499.40
2012,09,30,15,52,504.00
2012,09,30,15,53,500.30
2012,09,30,15,54,466.00
2012,09,30,15,55,443.00
2012,09,30,15,56,283.20
2012,09,30,15,57,292.40
2012,09,30,15,58,504.00
2012,09,30,15,59,504.00
2012,09,30,16,00,374.80
2012,09,30,16,01,282.30
2012,09,30,16,02,352.50
2012,09,30,16,03,347.40
2012,09,30,16,04,271.50
2012,09,30,16,05,245.40
2012,09,30,16,06,196.20
2012,09,30,16,07,169.00
2012,09,30,16,08,154.70
2012,09,30,16,09,191.80
2012,09,30,16,10,142.00
2012,09,30,16,11,155.00
2012,09,30,16,12,291.80
2012,09,30,16,13,404.00
2012,09,30,16,14,406.40
2012,09,30,16,15,402.20
2012,09,30,16,16,398.00
2012,09,30,16,17,394.10
2012,09,30,16,18,390.70
2012,09,30,16,19,388.40
2012,09,30,16,20,387.70
2012,09,30,16,21,382.60
2012,09,30,16,22,379.80
2012,09,30,16,23,376.90
2012,09,30,16,24,376.00
2012,09,30,16,25,373.60
2012,09,30,16,26,370.90
2012,09,30,16,27,368.60
2012,09,30,16,28,366.60
2012,09,30,16,29,366.00
2012,09,30,16,30,366.00
2012,09,30,16,31,360.00
2012,09,30,16,32,356.80
2012,09,30,16,33,353.80
2012,09,30,16,34,350.80
2012,09,30,16,35,350.90
2012,09,30,16,36,350.00
2012,09,30,16,37,348.30
2012,09,30,16,38,345.50
2012,09,30,16,39,343.00
2012,09,30,16,40,342.10
2012,09,30,16,41,339.20
2012,09,30,16,42,336.50
2012,09,30,16,43,336.00
2012,09,30,16,44,333.60
2012,09,30,16,45,311.00
2012,09,30,16,46,290.00
2012,09,30,16,47,288.80
2012,09,30,16,48,273.80
2012,09,30,16,49,268.10
2012,09,30,16,50,285.00
2012,09,30,16,51,286.80
2012,09,30,16,52,290.00
2012,09,30,16,53,287.00
2012,09,30,16,54,297.80
2012,09,30,16,55,303.50
2012,09,30,16,56,300.40
2012,09,30,16,57,304.60
2012,09,30,16,58,301.50
2012,09,30,16,59,299.70
2012,09,30,17,00,295.80
2012,09,30,17,01,291.80
2012,09,30,17,02,287.80
2012,09,30,17,03,287.00
2012,09,30,17,04,283.00
2012,09,30,17,05,279.00
2012,09,30,17,06,273.40
2012,09,30,17,07,271.10
2012,09,30,17,08,269.50
2012,09,30,17,09,263.90
2012,09,30,17,10,259.20
2012,09,30,17,11,252.80
2012,09,30,17,12,250.20
2012,09,30,17,13,250.00
2012,09,30,17,14,248.90